Home > Weather > Rodez > Past weeks

Flag for France Past Weather in Rodez, Midi-Pyrénées, France — Yesterday and Last 2 Weeks

Now
64 °F

Broken clouds.


Feels Like: 64 °F
Forecast: 59 / 74 °F
Wind: 3 mph from Southeast

Location: Rodez Airport

Current Time: Aug 28, 2016 at 9:18:59 AM

Latest Report: Aug 28, 2016 at 8:30 AM


Visibility: N/A

Pressure: 30.18 "Hg (27.99 "Hg at 642m altitude)

Humidity: 83%

Dew Point: 59 °F

Location of RodezLocation

Past Weather in Rodez — Graph

°F

Rodez Temperature Yesterday

Maximum temperature yesterday: 88 °F (at 3:00 PM)
Minimum temperature yesterday: 61 °F (at 3:30 AM)
Average temperature yesterday: 75 °F

High & Low Weather Summary for the Past Weeks

 TemperatureHumidityPressure
High90 °F (Aug 24, 3:00 PM)100% (Aug 19, 3:30 AM)30.36 "Hg (Aug 19, 3:30 AM)
Low50 °F (Aug 19, 7:00 AM)21% (Aug 14, 5:00 PM)29.89 "Hg (Aug 19, 10:30 AM)
Average71 °F55%30.12 "Hg
* Reported Aug 13 8:00 AM — Aug 28 8:00 AM, Rodez, Weather by CustomWeather, © 2016

Note: Actual official high and low records may vary slightly from our data, if they occured in-between our weather recording intervals... More about our weather records

Advertising

Rodez Weather History for the Previous 24 Hours

Scroll right to see more
 ConditionsComfort  
Time TempWeatherWind HumidityBarometerVisibility
8:00 AM
Sun, Aug 28
59 °FPassing clouds.2 mph77%30.18 "HgN/A
7:30 AM55 °FClear.6 mph77%30.15 "HgN/A
7:00 AM55 °FClear.5 mph77%30.15 "HgN/A
6:30 AM57 °FClear.3 mph72%30.15 "HgN/A
6:00 AM57 °FClear.3 mph72%30.15 "Hg10 mi
5:30 AM57 °FClear.3 mph67%30.15 "Hg10 mi
5:00 AM59 °FClear.No wind63%30.15 "Hg10 mi
4:30 AM59 °FClear.No wind68%30.15 "Hg10 mi
4:00 AM59 °FClear.3 mph68%30.15 "Hg10 mi
3:30 AM63 °FClear.5 mph59%30.12 "Hg10 mi
3:00 AM64 °FClear.7 mph56%30.12 "HgN/A
2:30 AM61 °FClear.3 mph63%30.15 "HgN/A
2:00 AM64 °FClear.6 mph56%30.15 "Hg10 mi
1:30 AM68 °FClear.7 mph49%30.15 "Hg10 mi
1:00 AM70 °FClear.7 mph46%30.15 "Hg10 mi
12:30 AM70 °FClear.8 mph43%30.15 "Hg10 mi
12:00 AM70 °FClear.8 mph46%30.15 "Hg10 mi
11:30 PM
Sat, Aug 27
72 °FClear.6 mph47%30.15 "Hg10 mi
11:00 PM72 °FClear.8 mph47%30.15 "Hg10 mi
10:30 PM73 °FClear.8 mph44%30.12 "Hg10 mi
10:00 PM73 °FClear.7 mph44%30.12 "Hg10 mi
9:30 PM75 °FSunny.9 mph41%30.12 "Hg10 mi
9:00 PM77 °FSunny.9 mph39%30.12 "Hg10 mi
8:30 PM79 °FSunny.8 mph37%30.12 "Hg10 mi
8:00 PM81 °FSunny.9 mph34%30.12 "Hg10 mi
7:30 PM82 °FSunny.8 mph32%30.09 "Hg10 mi
7:00 PM84 °FSunny.10 mph29%30.09 "Hg10 mi
6:30 PM86 °FSunny.9 mph27%30.09 "Hg10 mi
6:00 PM88 °FPassing clouds.8 mph27%30.09 "HgN/A
5:30 PM88 °FPassing clouds.9 mph25%30.09 "HgN/A
5:00 PM88 °FSunny.10 mph25%30.09 "Hg10 mi
4:30 PM88 °FPassing clouds.13 mph25%30.09 "HgN/A
4:00 PM88 °FPassing clouds.10 mph27%30.12 "HgN/A
3:30 PM86 °FPassing clouds.13 mph29%30.12 "HgN/A
3:00 PM88 °FPassing clouds.13 mph27%30.12 "HgN/A
2:30 PM86 °FSunny.13 mph29%30.12 "Hg10 mi
2:00 PM86 °FSunny.14 mph27%30.12 "Hg10 mi
1:30 PM86 °FSunny.14 mph27%30.12 "Hg10 mi
1:00 PM84 °FSunny.13 mph29%30.12 "Hg10 mi
12:30 PM84 °FPassing clouds.13 mph29%30.15 "HgN/A
12:00 PM84 °FPassing clouds.10 mph29%30.15 "HgN/A
11:30 AM82 °FPassing clouds.9 mph28%30.15 "HgN/A
11:00 AM81 °FSunny.12 mph30%30.15 "Hg10 mi
10:30 AM79 °FPassing clouds.12 mph32%30.15 "HgN/A
10:00 AM79 °FPassing clouds.15 mph37%30.12 "HgN/A
9:30 AM75 °FSunny.10 mph47%30.12 "Hg10 mi
9:00 AM73 °FSunny.12 mph50%30.12 "Hg10 mi
Weather by CustomWeather, © 2016

See weather overviewHow to use our weather pages